Terminal Aerodrome Forecast
Issued by NWS Grand Forks, ND

Home | Current Version | Previous Version | Graphics & Text | Print | Product List | Glossary On
Versions: 1 2 3 4 5 6 7 8 9 10 11 12
000
FTUS43 KFGF 252300
TAFGFK
TAF
KGFK 252333Z 2600/2624 VRB04KT P6SM SKC
     FM261200 13007KT P6SM FEW250
     FM261500 14013G18KT P6SM SCT250
     FM261800 14017G27KT P6SM SCT250=

USA.gov is the U.S. government's official web portal to all federal, state and local government web resources and services.